Preview of NWS' New Version of Forecast
This preview is not operational and should not be used for support decisions.

Regional Weather Roundup (RWR)

Issued by Gray - Portland, ME (GYX)

                            
000
ASUS41 KGYX 240205
RWRGYX
WEATHER ROUNDUP FOR MAINE AND NEW HAMPSHIRE
NATIONAL WEATHER SERVICE GRAY ME
1000 PM EDT SUN JUN 23 2019

MEZ002-005-006-010-012-015-018-020-021-024-026-027-029-240300-
MAINE
  
CITY           SKY/WX    TMP DP  RH WIND       PRES   REMARKS
PORTLAND       FAIR      74  44  34 W7        29.74R                  
SANFORD        FAIR      70  48  45 NW6       29.76S                  
BAR HARBOR     FAIR      57  56  96 CALM      29.70R                  
WISCASSET      FAIR      62  55  77 CALM      29.72R                  
ROCKLAND       MOCLDY    63  55  75 CALM      29.70R                  
FRYEBURG       FAIR      74  42  31 W12       29.76S                  
LEWISTONAUBURN FAIR      73  46  38 NW6       29.73R                  
AUGUSTA        FAIR      72  47  40 NW7       29.72R                  
WATERVILLE     FAIR      71  47  42 W7        29.70R                  
BANGOR         FAIR      62  55  77 NW3       29.70R                  
GREENVILLE       N/A     63  42  46 N10       29.73R                  
MILLINOCKET    FAIR      67  38  34 N5        29.71R                  
HOULTON        FAIR      57  40  52 NE5       29.70R                  
PRESQUE ISLE   FAIR      56  39  53 N8        29.74R                  
FRENCHVILLE    FAIR      57  35  43 N7        29.74R                  
CARIBOU        FAIR      55  39  54 N6        29.73R                  
$$

NHZ002-005-008-009-011-012-014-240300-
NEW HAMPSHIRE
  
CITY           SKY/WX    TMP DP  RH WIND       PRES   REMARKS
ROCHESTER      FAIR      73  46  38 NW8       29.77R                  
NASHUA         FAIR      73  55  53 W5        29.79R                  
MANCHESTER     FAIR      75  50  41 W7        29.77R                  
CONCORD        FAIR      70  47  43 NW6       29.79R                  
LACONIA        FAIR      68  51  54 SW5       29.80R                  
PLYMOUTH       FAIR      62  52  70 CALM      29.79R                  
BERLIN         FAIR      59  48  67 CALM      29.78R                  
WHITEFIELD     FAIR      66  44  45 W3        29.80R                  
JAFFREY        FAIR      72  53  51 SW5       29.84R                  
KEENE          FAIR      72  55  55 VRB6      29.82R                  
LEBANON        FAIR      62  52  69 CALM      29.81R                  
MT WASHINGTON  NOT AVBL                                               
$$

VTZ005-007-008-240300-
VERMONT
  
CITY           SKY/WX    TMP DP  RH WIND       PRES   REMARKS
ST JOHNSBURY     N/A     65  50  58 MISG      29.79R                  
MONTPELIER     FAIR      69  45  41 NW7       29.87R                  
BURLINGTON     FAIR      73  47  39 W7        29.82R                  
$$

MAZ007-012-024-CTZ003-RIZ002-NYZ038-NYZ072-240300-
SOUTHERN NEW ENGLAND AND NY
  
CITY           SKY/WX    TMP DP  RH WIND       PRES   REMARKS
BOSTON         FAIR      80  53  39 W12G22    29.77R                  
WORCESTER      FAIR      70  53  54 W16       29.84R                  
NANTUCKET      FAIR      65  57  75 W17G26    29.80R                  
PROVIDENCE     FAIR      72  63  73 W6        29.81R                  
HARTFORD       FAIR      73  51  46 NW8       29.83R                  
ALBANY         FAIR      72  49  44 W14       29.86R                  
NEW YORK CITY  FAIR      81  51  35 W12       29.86R                  
$$

ANZ081-ANZ082-ANZ150-NHZ014-MEZ023>029-240300-
COASTAL MARINE OBSERVATIONS
  
STATION/POSITION TIME  TEMP    WIND        PRES    WAVE
                       AIR SEA DIR/SP/G            HT/PER
                 (UTC) (F)     (DEG/KT/KT) (MB)    (FT/S)
ISLE OF SHOALS   0100   79     280/ 13/ 14 1006.4R
JEFFREYS LEDGE   0138      58                N/A     1/ 3
$$

.............KEY..............
   WCI - WIND CHILL
   TC  - TEMPERATURE IN CELSIUS
   VSB - VISIBILITY IN MILES
   HX  - HEAT INDEX
   FAIR- INDICATES FEW OR NO CLOUDS BELOW 12,000 FT, WITH NO 
         SIGNIFICANT WEATHER AND/OR OBSTRUCTIONS TO VISIBILITY.